星链-31634 (STARLINK-31634 )

导读

STARLINK-31634是美国太空探索技术公司星链星座的组网卫星,于2024年3月25日发射入轨,归属于星链低轨互联网星座项目。作为星链扩容计划的成员,该卫星承担全球覆盖宽带互联网服务,重点支持偏远地区通信、海事航空联网等场景,延续星链星座“一箭多星”密集部署、逐步完成全球组网的发展节奏。

Basic Information
目录编号:
59330
目录名称:
STARLINK-31634
国际标识:
2024-057L
轨道中心:
EARTH
卫星名称:
星链-31634
卫星全名:
星链-31634 (STARLINK-31634 )
卫星状态:
在轨 (已飞行893 天)
发射日期:
2024-03-25 UTC
国别 :
美国 (US)
星等 :
--
Orbit Information
数据来源 国际轨道数据
星历时间: 2026-09-03T11:06:47+0800
1天前
查看轨道信息
半长轴: 6861.155km
偏心率: 0.0001414
轨道倾角: 43.003°
近地点辐角 278.591°
升交点赤经 265.206°
平近点角 81.478°
近地点: 482.047km
远地点: 483.989km
周期: 94.266分钟
每日圈数: 15.275904
Detailed Information
固有亮度:
5
最大亮度:
0.3
卫星平台:
Starlink v2.0 mini
覆盖范围:
全球
运营商:
太空探索技术公司
运营商所在国:
美国
制造商(研发单位):
太空探索技术公司
制造商所在国:
美国
使用方式:
暂无
Satellite Introduction
星链(Starlink)计划是由太空探索技术公司(SpaceX)提出的一个巨型低轨卫星互联网星座项目,计划在2019年至2024年间在太空搭建由约1.2万颗卫星组成的“星链”网络,其中1584颗将部署在地球上空550千米处的近地轨道,并从2020年开始工作。该卫星仍在工作。
2D Orbit Map
3D Orbit Map
Orbit Altitude Analysis Chart
Orbit Inclination Analysis Chart
Orbit Comprehensive Analysis Chart
View Comprehensive Chart
Conjunction Data List
Event ID Objects TCA Miss Dist (km) Collision Risk Probability Collision Risk Index (CRI) Action
CDM_260905-052705-933006-800221
2026-09-05T
05:27:01+0000
0.644 km
远距离
8.243782E-5 中风险 0.73
CDM_260905-073202-893205-933021
H-2A R/B (28932)
2026-09-05T
07:32:34+0000
2.060 km
极远距离
2.589351E-6 低风险 0.43
CDM_260905-035205-933006-800221
2026-09-05T
03:52:52+0000
1.961 km
极远距离
2.30958E-6 低风险 0.42
CDM_260905-070105-933006-800221
2026-09-05T
07:01:10+0000
2.013 km
极远距离
2.16106E-6 低风险 0.42